Retour au catalogue

STARLINK-1578

ActifCommunicationsVLEO
NORAD 46082·PAYLOAD·🇺🇸 United States

Lancé Aug 7, 2020 depuis Cape Canaveral Space Force Station

Loading…

Prochains Passages (prochaines 24 heures)

TLE

FraisSource: CelesTrak SupGP

Époque: Sep 15, 2026, 01:52 UTC

1 46082C 20055BH  26258.07826389  .00032958  00000+0  10595-2 0  2584
2 46082  53.1591 300.2888 0001304  84.0236  62.3776 15.31695367    14

Suivez STARLINK-1578 en temps réel avec AllMySat

Download on the App Store